Weather History for Mammoth, CA

Change the Weather History Date:

Saturday, December 14, 2013

  Actual Average Record
Temperature  
Mean Temperature 28 °F -  
Max Temperature 53 °F 39 °F 60 °F (2004)
Min Temperature 3 °F 24 °F 3 °F (2012)
Degree Days  
Heating Degree Days 37    
Moisture  
Dew Point 9 °F    
Average Humidity 55    
Maximum Humidity 92    
Minimum Humidity 14    
Precipitation  
Precipitation 0.00 in - - ()
Sea Level Pressure  
Sea Level Pressure 30.49 in    
Wind  
Wind Speed 3 mph (ENE)    
Max Wind Speed 8 mph    
Max Gust Speed -    
Visibility 10 miles    
Events      
Averages and records for this station are not official NWS values.
T = Trace of Precipitation, MM = Missing Value Source: NWS Daily Summary

Daily Weather History Graph

Daily Weather History Graph

Search for Another Location

Airport:

Trip Planner

Search our weather history database for the weather conditions in past years. The results will help you decide how hot, cold, wet, or windy it might be!

Date:

Astronomy

Dec. 14, 2013 Rise Set
Actual Time 7:02 AM PST 4:37 PM PST
Civil Twilight 6:33 AM PST 5:07 PM PST
Nautical Twilight 6:00 AM PST 5:39 PM PST
Astronomical Twilight 5:28 AM PST 6:11 PM PST
Moon 3:01 PM PST (12/14) 4:29 AM PST (12/14)
Length of Visible Light 10h 33m
Length of Day
9h 35m
Waxing Gibbous, 94% of the Moon is Illuminated
Dec 14
Waxing Gibbous
Dec 17
Full
Dec 25
Last Quarter
Jan 1
New
Jan 7
First Quarter

Hourly Weather History & Observations

Time (PST) Temp. Windchill Dew Point Humidity Pressure Visibility Wind Dir Wind Speed Gust Speed Precip Events Conditions
12:15 AM 19.4 °F 14.3 °F 12.2 °F 74% 30.42 in 10.0 mi North 3.5 mph - N/A   Clear
12:35 AM 21.2 °F - 12.2 °F 68% 30.43 in 10.0 mi Calm Calm - N/A   Clear
12:55 AM 19.4 °F 12.8 °F 12.2 °F 74% 30.41 in 10.0 mi North 4.6 mph - N/A   Clear
1:15 AM 15.8 °F - 10.4 °F 79% 30.42 in 10.0 mi North - - N/A   Clear
1:35 AM 17.6 °F 12.3 °F 8.6 °F 68% 30.43 in 10.0 mi North 3.5 mph - N/A   Clear
1:55 AM 15.8 °F 10.2 °F 8.6 °F 73% 30.44 in 10.0 mi NW 3.5 mph - N/A   Clear
2:15 AM 14.0 °F 6.5 °F 8.6 °F 79% 30.44 in 10.0 mi North 4.6 mph - N/A   Clear
2:35 AM 15.8 °F - 8.6 °F 73% 30.45 in 10.0 mi Calm Calm - N/A   Clear
2:55 AM 15.8 °F - 8.6 °F 73% 30.45 in 10.0 mi North - - N/A   Clear
3:15 AM 10.4 °F -0.4 °F 5.0 °F 79% 30.44 in 10.0 mi NW 6.9 mph - N/A   Clear
3:35 AM 6.8 °F -0.1 °F 5.0 °F 92% 30.44 in 10.0 mi NNW 3.5 mph - N/A   Clear
3:55 AM 10.4 °F - 5.0 °F 79% 30.45 in 10.0 mi Calm Calm - N/A   Clear
4:15 AM 10.4 °F 2.2 °F 6.8 °F 85% 30.45 in 10.0 mi NNW 4.6 mph - N/A   Clear
4:35 AM 10.4 °F - 6.8 °F 85% 30.45 in 10.0 mi North - - N/A   Clear
4:55 AM 8.6 °F - 1.4 °F 73% 30.45 in 10.0 mi Calm Calm - N/A   Clear
5:15 AM 5.0 °F - 1.4 °F 85% 30.46 in 10.0 mi Calm Calm - N/A   Clear
5:35 AM 3.2 °F - -0.4 °F 85% 30.47 in 10.0 mi Calm Calm - N/A   Clear
5:55 AM 8.6 °F 2.0 °F 5.0 °F 85% 30.47 in 10.0 mi NNW 3.5 mph - N/A   Clear
6:15 AM 8.6 °F - 5.0 °F 85% 30.48 in 10.0 mi Calm Calm - N/A   Clear
6:35 AM 8.6 °F - 3.2 °F 79% 30.49 in 10.0 mi Calm Calm - N/A   Clear
6:55 AM 6.8 °F -0.1 °F 3.2 °F 85% 30.49 in 10.0 mi North 3.5 mph - N/A   Clear
7:15 AM 10.4 °F - 5.0 °F 79% 30.50 in 10.0 mi Calm Calm - N/A   Clear
7:35 AM 12.2 °F - 5.0 °F 73% 30.50 in 10.0 mi North - - N/A   Clear
7:55 AM 12.2 °F - 6.8 °F 79% 30.50 in 10.0 mi North - - N/A   Clear
8:15 AM 17.6 °F - 8.6 °F 68% 30.51 in 10.0 mi Calm Calm - N/A   Clear
8:35 AM 21.2 °F - 10.4 °F 63% 30.51 in 10.0 mi Calm Calm - N/A   Clear
8:55 AM 24.8 °F - 10.4 °F 54% 30.52 in 10.0 mi Calm Calm - N/A   Clear
9:15 AM 26.6 °F 22.6 °F 14.0 °F 59% 30.52 in 10.0 mi SE 3.5 mph - N/A   Clear
9:35 AM 28.4 °F - 14.0 °F 55% 30.52 in 10.0 mi Calm Calm - N/A   Clear
9:55 AM 30.2 °F 23.4 °F 15.8 °F 55% 30.53 in 10.0 mi SE 6.9 mph - N/A   Clear
10:15 AM 32.0 °F 25.6 °F 15.8 °F 51% 30.53 in 10.0 mi SE 6.9 mph - N/A   Clear
10:35 AM 33.8 °F 28.6 °F 15.8 °F 48% 30.52 in 10.0 mi SE 5.8 mph - N/A   Clear
10:55 AM 37.4 °F 31.4 °F 14.0 °F 38% 30.52 in 10.0 mi SE 8.1 mph - N/A   Clear
11:15 AM 39.2 °F 33.6 °F 12.2 °F 33% 30.52 in 10.0 mi SE 8.1 mph - N/A   Clear
11:35 AM 41.0 °F 36.4 °F 12.2 °F 31% 30.51 in 10.0 mi SE 6.9 mph - N/A   Clear
11:55 AM 44.6 °F 40.2 °F 10.4 °F 25% 30.49 in 10.0 mi SE 8.1 mph - N/A   Clear
12:15 PM 46.4 °F 43.5 °F 8.6 °F 22% 30.48 in 10.0 mi SE 5.8 mph - N/A   Clear
12:35 PM 48.2 °F - 6.8 °F 19% 30.48 in 10.0 mi SE 6.9 mph - N/A   Clear
12:55 PM 50.0 °F - 5.0 °F 16% 30.48 in 10.0 mi SE 5.8 mph - N/A   Clear
1:15 PM 51.8 °F - 5.0 °F 15% 30.46 in 10.0 mi SE 4.6 mph - N/A   Clear
1:35 PM 51.8 °F - 5.0 °F 15% 30.46 in 10.0 mi SE 4.6 mph - N/A   Clear
1:55 PM 53.6 °F - 5.0 °F 14% 30.46 in 10.0 mi SE 4.6 mph - N/A   Clear
2:15 PM 53.6 °F - 5.0 °F 14% 30.46 in 10.0 mi SE 4.6 mph - N/A   Clear
2:35 PM 53.6 °F - 5.0 °F 14% 30.46 in 10.0 mi SE 4.6 mph - N/A   Clear
2:55 PM 51.8 °F - 5.0 °F 15% 30.46 in 10.0 mi SE 5.8 mph - N/A   Clear
3:15 PM 51.8 °F - 5.0 °F 15% 30.46 in 10.0 mi SE 5.8 mph - N/A   Clear
3:35 PM 50.0 °F - 5.0 °F 16% 30.46 in 10.0 mi SSE 4.6 mph - N/A   Clear
3:55 PM 42.8 °F - 8.6 °F 25% 30.46 in 10.0 mi Calm Calm - N/A   Clear
4:15 PM 39.2 °F 33.6 °F 8.6 °F 28% 30.47 in 10.0 mi South 8.1 mph - N/A   Clear
4:35 PM 39.2 °F 37.0 °F 8.6 °F 28% 30.48 in 10.0 mi SE 3.5 mph - N/A   Clear
4:55 PM 35.6 °F 32.8 °F 8.6 °F 33% 30.48 in 10.0 mi West 3.5 mph - N/A   Clear
5:15 PM 33.8 °F - 8.6 °F 35% 30.48 in 10.0 mi Calm Calm - N/A   Clear
5:35 PM 33.8 °F - 12.2 °F 41% 30.49 in 10.0 mi Calm Calm - N/A   Clear
5:55 PM 32.0 °F 28.7 °F 12.2 °F 44% 30.50 in 10.0 mi North 3.5 mph - N/A   Clear
6:15 PM 30.2 °F - 12.2 °F 47% 30.50 in 10.0 mi Calm Calm - N/A   Clear
6:35 PM 30.2 °F - 14.0 °F 51% 30.51 in 10.0 mi Calm Calm - N/A   Clear
6:55 PM 30.2 °F - 14.0 °F 51% 30.52 in 10.0 mi Calm Calm - N/A   Clear
7:15 PM 26.6 °F - 12.2 °F 55% 30.52 in 10.0 mi Calm Calm - N/A   Clear
7:35 PM 28.4 °F 24.6 °F 14.0 °F 55% 30.53 in 10.0 mi NNW 3.5 mph - N/A   Clear
7:55 PM 28.4 °F 24.6 °F 14.0 °F 55% 30.53 in 10.0 mi North 3.5 mph - N/A   Clear
8:15 PM 28.4 °F - 14.0 °F 55% 30.54 in 10.0 mi Calm Calm - N/A   Clear
8:35 PM 26.6 °F 21.2 °F 14.0 °F 59% 30.54 in 10.0 mi North 4.6 mph - N/A   Clear
8:55 PM 26.6 °F - 14.0 °F 59% 30.55 in 10.0 mi North - - N/A   Clear
9:15 PM 26.6 °F - 14.0 °F 59% 30.54 in 10.0 mi North - - N/A   Clear
9:35 PM 26.6 °F - 14.0 °F 59% 30.54 in 10.0 mi North - - N/A   Clear
9:55 PM 24.8 °F - 12.2 °F 59% 30.54 in 10.0 mi North - - N/A   Clear
10:15 PM 23.0 °F - 12.2 °F 63% 30.54 in 10.0 mi North - - N/A   Clear
10:35 PM 21.2 °F - 12.2 °F 68% 30.55 in 10.0 mi Calm Calm - N/A   Clear
10:55 PM 17.6 °F 12.3 °F 10.4 °F 73% 30.54 in 10.0 mi North 3.5 mph - N/A   Clear
11:15 PM 17.6 °F 10.7 °F 10.4 °F 73% 30.54 in 10.0 mi North 4.6 mph - N/A   Clear
11:35 PM 21.2 °F 16.4 °F 12.2 °F 68% 30.55 in 10.0 mi North 3.5 mph - N/A   Clear
11:55 PM 23.0 °F 18.4 °F 12.2 °F 63% 30.55 in 10.0 mi North 3.5 mph - N/A   Clear